Temperature
25 23 23 24 24 25 25 25 24 25 25 24 23 22 22 22 22 21 21 21 22 22 22 22 21 21 21 21 21 21 21 20 20 20 19 19 19 19 19 19 19 19 18 18
23 24 25 25 25 25 25 25 24 25 25 25 23 23 22 22 22 22 22 21 22 22 22 22 21 21 21 21 21 21 21 20 20 20 20 19 19 19 19 19 18 18 18 18
25 25 26 26 25 25 25 24 25 25 25 24 24 23 22 22 22 22 22 22 22 22 22 22 22 21 21 21 21 21 21 21 20 20 20 19 19 19 19 19 18 18 18 18
24 25 26 26 26 25 24 25 25 25 24 22 23 22 22 21 21 21 22 22 22 22 22 22 22 22 22 22 21 21 21 21 20 20 20 19 19 19 19 19 18 18 18 18
25 26 26 26 26 25 25 25 25 24 23 22 22 22 22 21 21 21 21 22 22 22 22 22 23 22 22 22 21 21 21 20 20 20 20 19 19 19 19 19 18 18 18 18
25 26 26 26 26 26 25 24 23 20 20 22 22 22 21 20 21 21 22 22 22 22 22 22 22 22 22 21 21 21 21 20 20 20 20 19 19 19 19 18 18 18 18 18
25 25 26 26 26 25 24 22 22 22 21 21 21 21 21 22 21 22 22 22 22 23 22 22 22 22 22 22 21 21 21 20 20 20 20 19 19 19 19 18 18 18 18 18
24 24 25 25 26 24 23 22 22 23 22 21 21 21 21 22 22 22 23 23 22 22 22 22 23 22 22 22 22 21 21 21 20 20 20 19 19 19 19 18 18 18 18 18
22 23 25 25 25 24 23 21 21 20 20 21 21 21 21 22 22 22 22 22 22 22 22 23 22 22 22 22 21 21 21 21 20 20 20 19 19 19 19 18 18 18 18 18
22 24 24 25 25 24 23 20 18 19 20 21 21 21 21 22 21 21 20 20 21 22 22 22 22 22 22 22 21 21 21 20 20 20 20 19 19 19 18 18 18 18 18 17
22 23 23 23 24 24 23 21 18 17 19 20 21 21 21 21 20 20 20 20 21 22 22 22 22 22 21 21 21 21 20 20 20 20 19 19 19 18 18 18 18 18 17 17
20 19 21 22 23 23 23 21 19 21 20 18 19 20 21 20 20 20 20 20 21 21 22 22 21 21 21 21 20 20 20 20 20 19 19 18 18 18 18 18 18 17 17 17
20 19 20 22 22 22 22 21 19 18 17 16 19 21 20 19 19 20 20 20 20 20 21 21 21 20 20 20 20 20 20 20 19 19 18 18 18 18 18 18 17 17 17 17
20 18 20 21 21 21 22 22 20 19 18 18 18 20 20 19 19 19 19 19 20 20 20 20 20 20 20 20 20 19 19 19 19 19 18 18 18 18 18 18 17 17 17 17
19 19 20 20 21 21 21 21 21 20 19 19 19 19 19 18 18 19 19 19 19 19 19 19 20 19 19 19 19 19 19 19 19 18 18 18 18 17 17 17 17 17 17 16
17 19 19 20 21 21 21 21 20 20 20 19 19 19 18 18 18 18 18 18 18 19 19 19 19 19 19 19 19 19 19 19 18 18 18 17 17 17 17 17 17 17 16 16
16 17 18 19 20 21 20 20 20 20 19 19 19 19 18 17 17 18 18 19 19 19 19 19 19 19 19 19 19 19 18 18 18 18 17 17 17 17 17 16 16 16 16 16
15 15 15 16 19 20 19 19 20 19 19 18 18 18 17 17 18 19 19 19 19 19 19 19 19 19 19 19 18 18 18 18 18 18 17 17 17 16 16 16 16 16 16 16
14 15 14 15 17 18 19 19 19 19 18 18 18 17 17 18 18 18 19 19 19 19 19 19 19 19 18 18 18 18 18 18 17 17 17 17 16 16 16 16 15 15 15 15
13 13 14 15 18 18 19 19 19 19 18 18 17 17 17 17 16 17 19 19 19 19 19 18 18 18 18 18 17 17 17 17 17 17 16 16 16 16 15 15 15 15 15 15
15 14 14 15 17 17 17 18 19 19 18 18 18 18 17 17 17 19 19 19 18 18 18 18 18 18 18 17 17 17 17 17 16 16 16 16 16 15 15 15 15 14 14 14
15 14 14 14 16 17 17 17 17 17 18 18 18 18 18 18 18 18 18 18 18 18 18 18 17 17 17 17 17 17 16 16 16 16 16 15 15 15 15 14 14 14 14 14
13 14 13 14 15 15 16 16 17 18 17 18 18 18 18 18 18 18 18 18 18 17 17 17 17 17 17 16 16 16 16 16 16 15 15 15 15 14 14 14 14 13 13 13
13 12 12 13 14 15 16 17 17 17 18 18 18 18 18 18 18 18 18 17 17 17 17 17 16 16 16 16 16 15 15 15 15 15 14 14 14 14 14 13 13 13 13 13
13 13 12 13 14 15 16 17 17 17 17 17 17 18 18 17 17 17 17 17 16 16 16 16 16 16 16 15 15 15 15 14 14 14 14 13 13 13 13 13 13 13 13 13
12 12 13 13 14 14 15 16 17 17 17 17 17 17 17 17 17 17 16 16 16 16 16 15 15 15 15 15 14 14 14 14 14 13 13 13 13 13 13 13 12 12 12 12
Wind_Speed
3 4 3 6 7 5 3 2 4 5 2 3 4 5 4 6 7 9 9 9 10 10 8 7 7 8 7 6 6 5 5 4 4 3 2 2 1 1 1 1 2 2 1 1
4 3 7 4 4 4 3 2 3 4 1 2 2 3 3 6 9 9 10 10 10 8 6 7 8 8 8 8 7 6 5 5 4 3 3 2 2 1 1 1 1 1 1 1
6 6 2 2 2 2 3 5 5 3 2 3 2 5 2 2 3 4 6 7 8 10 10 10 9 9 9 9 8 7 6 5 4 4 3 2 2 1 1 1 1 2 1 1
5 5 2 1 3 5 4 6 5 3 1 2 2 2 6 3 3 6 7 7 9 9 9 9 9 9 10 9 8 7 6 5 4 4 4 4 3 2 2 1 1 2 1 1
5 3 2 4 5 6 5 1 2 2 3 2 3 1 7 2 4 8 8 9 9 10 10 10 11 10 8 8 8 7 6 6 5 5 5 4 3 2 1 0 1 1 1 1
5 3 3 4 2 4 3 6 7 6 5 1 2 2 6 4 6 6 7 8 8 8 9 9 9 7 7 7 7 7 7 6 6 6 5 6 5 4 2 1 1 2 2 1
4 4 3 2 2 2 5 6 4 5 4 4 2 2 7 6 6 6 7 8 7 7 8 8 9 9 9 9 9 8 8 7 6 7 6 6 6 5 4 3 3 2 1 1
3 6 4 3 6 6 4 8 7 5 5 5 2 4 7 5 5 3 3 4 5 6 7 9 10 9 9 10 9 9 9 7 7 7 6 5 5 4 4 4 3 3 2 2
7 7 5 2 3 8 6 4 6 7 3 1 5 6 7 4 4 2 1 2 4 6 7 8 8 7 8 8 8 9 8 7 7 7 6 5 5 4 4 3 3 2 2 2
8 4 5 3 4 4 5 9 6 6 5 3 5 4 5 6 5 3 2 2 3 4 5 5 6 7 7 7 7 7 7 7 6 7 6 5 5 4 3 3 3 3 3 2
5 4 4 3 2 3 4 5 5 5 5 6 4 6 5 6 5 5 5 4 4 5 5 5 5 5 5 5 5 6 6 5 5 5 5 5 4 4 3 3 3 3 3 3
4 5 2 5 4 2 4 6 7 5 4 5 4 7 5 4 4 4 3 3 2 3 3 3 3 4 4 4 4 5 6 5 5 4 4 4 3 3 3 3 3 2 3 3
5 6 2 5 5 3 2 2 4 5 5 5 5 6 3 3 2 1 1 1 2 3 3 3 3 3 3 3 3 4 5 5 5 4 4 3 4 4 4 3 3 2 3 3
5 5 6 8 7 4 1 1 4 6 4 5 7 6 6 5 3 2 0 1 2 3 3 3 2 2 2 2 2 2 3 4 5 5 5 4 4 4 4 3 3 3 3 3
5 4 3 4 3 3 3 2 3 5 7 8 7 5 6 5 3 2 0 2 3 2 2 2 2 2 1 2 2 3 3 3 4 5 5 5 4 3 3 4 4 3 3 4
4 4 2 1 1 2 1 2 2 3 3 4 3 4 4 2 1 1 1 2 2 1 2 2 2 2 2 3 3 3 3 3 3 4 4 4 3 3 4 4 4 3 3 3
2 5 4 3 3 1 4 5 4 3 2 5 6 5 2 1 2 3 3 4 4 3 2 3 3 3 3 4 4 4 3 3 3 3 3 3 4 4 5 5 4 4 4 3
5 4 4 2 2 5 7 2 3 3 1 2 3 3 3 3 3 3 3 4 4 3 2 2 3 3 4 3 2 2 2 3 3 3 3 3 3 4 4 4 4 4 3 3
4 6 4 4 3 4 5 2 3 4 3 2 3 2 1 0 1 3 2 2 3 3 3 3 3 3 2 2 2 2 2 2 2 2 3 3 3 3 3 4 4 3 3 3
5 4 5 4 4 7 7 3 1 3 4 4 4 4 3 2 0 4 3 3 2 2 1 2 1 0 1 1 2 3 2 2 3 3 3 3 3 3 4 4 4 3 3 4
3 3 3 4 4 6 5 4 2 4 6 3 3 4 4 4 5 4 2 2 2 1 1 2 2 1 2 2 3 3 2 4 3 2 2 3 3 3 4 3 3 2 2 3
4 3 3 4 3 6 3 1 4 5 2 1 2 2 2 3 2 2 1 2 1 1 1 1 1 0 1 1 3 3 3 3 2 2 2 3 3 3 2 1 2 2 2 3
3 5 5 6 6 4 2 3 3 2 2 2 2 2 2 1 2 2 2 1 1 1 1 0 1 0 0 1 2 3 3 2 2 2 3 3 3 2 2 2 3 2 2 3
2 2 2 2 5 4 3 2 2 1 2 1 2 2 2 2 3 2 2 1 1 1 1 1 1 0 1 1 1 2 2 2 2 2 3 2 2 2 2 2 2 3 3 4
3 2 1 3 5 4 3 2 2 2 1 1 2 2 2 2 2 2 2 2 2 1 1 2 1 1 1 1 1 1 1 1 1 2 2 2 2 2 2 2 2 3 4 5
4 5 5 5 6 4 5 4 2 1 2 1 1 3 3 1 2 2 1 1 1 1 1 1 1 1 1 1 2 2 2 1 2 2 2 2 1 2 2 2 2 3 4 4
Wind_Direction
55 78 221 223 195 192 178 191 272 274 238 157 218 245 217 193 191 192 197 201 203 209 203 184 179 173 169 170 171 174 170 168 155 153 158 157 196 221 234 234 235 237 244 245
39 270 239 209 181 171 177 222 267 301 6 161 227 279 233 196 206 201 200 205 208 207 193 188 186 180 181 183 183 181 183 175 172 171 163 153 155 198 220 282 297 269 266 267
195 239 228 163 167 161 211 210 227 234 356 37 49 339 310 249 221 212 207 208 205 204 200 194 191 190 187 190 189 188 185 179 173 158 129 109 81 51 32 331 301 295 279 263
230 254 217 215 218 168 247 228 208 199 97 323 56 285 289 255 247 229 220 208 209 208 201 195 193 192 195 194 185 181 180 178 171 158 154 158 169 193 224 228 259 295 290 280
242 220 188 222 228 177 217 158 129 116 128 36 16 144 291 315 261 246 231 215 210 205 196 195 197 196 192 184 182 182 176 177 170 166 169 169 184 203 213 188 292 302 312 311
244 246 211 209 201 170 153 69 55 49 73 25 261 177 280 251 240 254 235 221 210 202 197 196 194 183 184 180 178 177 177 187 180 174 175 181 187 191 189 212 260 287 298 302
309 303 261 169 101 28 91 90 34 3 12 254 259 193 251 261 254 238 232 223 209 197 193 192 189 188 189 187 186 182 181 192 187 182 187 191 194 192 199 210 221 243 271 288
210 282 254 196 181 179 165 140 158 198 219 271 324 234 254 276 287 259 221 203 191 192 193 193 195 194 194 192 188 185 188 195 190 189 195 195 196 197 207 211 214 223 237 254
185 248 283 242 189 144 139 165 162 138 151 236 286 290 302 316 350 13 80 147 194 199 198 199 194 190 189 189 189 190 190 195 194 195 192 193 195 198 209 216 215 223 237 241
164 226 291 305 75 46 132 141 104 123 152 237 284 279 265 286 294 299 275 227 218 200 190 188 187 187 186 185 182 178 181 193 196 192 193 195 197 202 202 203 218 228 239 238
143 173 298 15 144 188 106 103 108 119 150 163 235 266 243 233 236 233 238 233 207 193 189 186 185 181 174 169 173 177 175 177 186 192 189 187 192 194 193 206 224 229 238 232
145 137 239 269 271 212 157 162 150 156 207 172 182 261 287 239 237 215 230 235 196 178 167 162 157 148 154 168 177 182 175 182 190 176 171 189 192 191 196 215 230 223 230 236
134 120 91 341 337 7 88 134 145 129 124 153 175 258 323 339 323 232 204 220 117 109 107 115 127 147 165 176 183 185 182 185 178 160 159 185 198 202 212 219 226 226 231 241
123 119 165 196 217 210 205 169 150 133 152 191 213 240 302 317 307 295 222 137 107 109 117 123 131 138 155 164 185 194 191 185 177 169 173 192 212 208 218 223 222 224 227 236
102 144 194 222 226 172 189 221 182 178 186 188 214 215 259 268 266 263 264 97 94 101 119 151 151 142 161 181 185 203 201 192 186 180 185 205 218 211 220 228 227 227 232 237
72 138 139 319 244 175 216 260 192 191 179 186 197 246 251 265 54 75 146 144 150 177 183 177 153 134 185 215 207 202 200 188 177 184 196 204 211 217 228 233 231 227 235 239
88 130 131 223 280 28 266 244 207 197 198 183 211 229 212 161 194 206 195 178 184 202 210 194 173 171 202 219 208 199 198 174 169 186 199 197 201 218 230 235 235 235 240 236
142 124 134 154 127 216 245 248 178 172 227 198 199 213 194 199 232 242 210 192 196 199 208 220 213 201 211 211 203 186 145 159 168 181 198 207 217 226 233 235 240 243 238 236
151 140 127 134 178 257 285 247 169 175 246 212 187 210 236 94 24 309 259 214 216 215 215 223 228 218 204 193 179 147 145 175 181 197 210 219 220 229 237 242 245 245 242 248
68 98 119 132 161 222 239 261 219 130 252 240 192 195 203 124 164 265 274 263 244 226 206 216 211 146 176 211 168 158 176 193 225 230 227 222 216 222 236 244 248 249 242 249
55 62 123 160 202 253 260 295 107 166 240 255 200 202 188 198 218 240 267 266 246 235 235 188 149 180 215 210 178 187 205 224 232 233 231 231 223 222 229 241 258 249 238 245
169 151 169 152 186 246 297 87 167 217 267 242 209 208 216 232 241 245 235 228 207 206 282 165 142 222 274 199 179 199 236 246 217 203 221 233 232 234 238 237 267 258 233 237
191 190 184 190 213 248 269 231 248 199 207 229 223 243 203 240 262 270 256 243 204 186 221 231 155 122 331 206 184 212 248 229 205 205 232 236 241 242 228 221 236 254 251 245
273 137 138 257 270 277 294 299 295 220 215 245 240 241 213 243 251 261 257 254 201 165 170 134 104 74 317 323 277 241 256 223 194 222 246 250 241 251 264 251 238 236 244 250
236 162 149 256 273 305 308 303 300 324 334 351 337 309 251 222 247 238 232 228 209 177 168 134 140 186 286 306 310 299 254 197 213 241 256 258 245 229 241 264 257 247 248 243
220 185 182 228 235 216 256 274 294 299 303 310 347 328 324 271 243 234 233 216 177 157 126 103 114 114 345 336 335 322 295 216 206 235 255 257 256 253 245 257 298 307 272 268
Height
1495 1501 1506 1503 1502 1502 1505 1510 1513 1506 1499 1503 1506 1505 1503 1502 1503 1505 1506 1507 1509 1510 1513 1515 1517 1520 1522 1524 1526 1528 1529 1530 1532 1533 1534 1535 1536 1537 1537 1537 1538 1538 1538 1538
1501 1504 1496 1495 1497 1500 1505 1510 1511 1505 1499 1502 1506 1505 1501 1501 1501 1501 1503 1504 1507 1509 1511 1513 1516 1518 1520 1522 1524 1526 1528 1530 1531 1532 1533 1535 1536 1536 1537 1537 1537 1537 1537 1537
1501 1497 1492 1494 1497 1502 1505 1508 1507 1507 1503 1503 1506 1510 1505 1501 1501 1502 1503 1503 1505 1506 1508 1510 1513 1515 1517 1520 1522 1524 1527 1528 1530 1532 1533 1534 1535 1535 1536 1536 1536 1536 1537 1536
1497 1492 1492 1494 1497 1499 1507 1498 1500 1503 1511 1519 1513 1529 1510 1504 1503 1501 1500 1501 1502 1503 1505 1507 1510 1512 1514 1517 1521 1523 1525 1527 1529 1530 1532 1532 1533 1534 1534 1535 1535 1535 1535 1535
1496 1491 1492 1495 1493 1494 1497 1493 1498 1503 1512 1521 1519 1527 1519 1507 1506 1500 1497 1498 1498 1500 1502 1504 1506 1509 1512 1515 1518 1521 1523 1525 1527 1529 1530 1531 1532 1533 1533 1534 1534 1534 1534 1534
1490 1487 1487 1488 1487 1489 1491 1498 1504 1513 1521 1533 1524 1528 1525 1511 1503 1497 1494 1494 1495 1497 1500 1502 1505 1508 1510 1513 1516 1518 1521 1523 1525 1526 1528 1529 1530 1531 1531 1532 1532 1532 1532 1532
1495 1489 1485 1485 1490 1491 1495 1512 1532 1534 1542 1538 1523 1526 1521 1500 1495 1493 1491 1491 1493 1495 1497 1499 1502 1504 1507 1510 1512 1515 1517 1520 1522 1524 1525 1527 1528 1529 1529 1530 1530 1530 1530 1530
1506 1505 1487 1484 1488 1495 1499 1508 1532 1542 1545 1537 1524 1526 1509 1494 1491 1489 1489 1490 1491 1493 1494 1496 1499 1501 1504 1506 1509 1512 1514 1517 1519 1521 1523 1524 1526 1527 1527 1528 1528 1528 1528 1528
1506 1503 1484 1481 1482 1487 1499 1508 1508 1527 1533 1538 1531 1519 1503 1491 1489 1489 1489 1489 1489 1490 1492 1494 1497 1499 1502 1504 1507 1509 1512 1514 1516 1518 1520 1522 1523 1524 1525 1525 1526 1526 1526 1526
1493 1500 1488 1483 1482 1486 1490 1501 1516 1528 1540 1543 1531 1524 1515 1498 1494 1491 1490 1489 1488 1489 1490 1493 1495 1497 1499 1502 1505 1507 1510 1512 1514 1516 1518 1519 1520 1521 1522 1523 1523 1523 1523 1523
1487 1498 1495 1489 1491 1494 1496 1503 1513 1525 1527 1539 1541 1527 1498 1495 1492 1490 1489 1488 1487 1488 1489 1491 1494 1496 1498 1501 1503 1505 1507 1510 1511 1513 1515 1516 1517 1518 1519 1520 1520 1521 1521 1520
1488 1499 1506 1496 1487 1485 1489 1496 1507 1518 1525 1530 1534 1523 1491 1490 1488 1488 1488 1487 1487 1488 1489 1491 1493 1495 1498 1500 1501 1503 1504 1507 1509 1510 1512 1514 1514 1515 1515 1516 1517 1518 1518 1518
1487 1499 1512 1508 1502 1492 1492 1494 1500 1508 1520 1531 1531 1517 1490 1489 1488 1487 1487 1487 1487 1488 1489 1491 1493 1494 1496 1498 1500 1501 1503 1504 1506 1507 1508 1510 1511 1513 1513 1513 1514 1515 1515 1515
1481 1496 1505 1511 1505 1496 1495 1494 1498 1505 1517 1522 1518 1508 1495 1491 1489 1488 1487 1487 1487 1488 1489 1490 1492 1494 1496 1497 1499 1500 1501 1502 1503 1504 1505 1507 1508 1509 1510 1511 1511 1512 1512 1512
1481 1494 1494 1493 1490 1491 1492 1493 1494 1498 1502 1508 1504 1503 1495 1490 1489 1488 1488 1488 1488 1488 1489 1490 1491 1492 1494 1496 1496 1498 1499 1500 1501 1502 1502 1504 1505 1506 1507 1508 1508 1509 1509 1508
1484 1492 1494 1495 1490 1491 1493 1492 1492 1493 1495 1498 1497 1498 1490 1488 1488 1488 1487 1488 1488 1488 1489 1489 1490 1490 1492 1493 1495 1496 1496 1497 1499 1499 1500 1502 1503 1504 1504 1505 1505 1505 1505 1505
1489 1493 1500 1504 1495 1493 1500 1493 1491 1491 1490 1492 1496 1492 1487 1487 1487 1486 1486 1486 1486 1488 1488 1488 1488 1488 1490 1492 1494 1493 1495 1495 1496 1497 1498 1499 1499 1500 1501 1502 1502 1502 1502 1502
1489 1496 1503 1506 1502 1510 1497 1485 1485 1488 1488 1487 1488 1487 1486 1485 1485 1485 1485 1485 1486 1486 1486 1487 1488 1488 1489 1490 1490 1491 1492 1493 1494 1495 1496 1496 1497 1497 1498 1498 1498 1498 1498 1498
1484 1492 1504 1511 1511 1504 1492 1484 1485 1488 1490 1485 1486 1485 1485 1485 1485 1485 1484 1485 1485 1486 1486 1487 1487 1487 1487 1488 1489 1489 1490 1491 1491 1492 1492 1493 1494 1494 1495 1495 1495 1495 1495 1495
1486 1490 1501 1508 1507 1509 1493 1481 1480 1485 1491 1483 1483 1483 1484 1484 1489 1486 1483 1483 1483 1483 1484 1485 1486 1485 1486 1486 1487 1487 1487 1489 1489 1489 1490 1491 1491 1491 1492 1492 1492 1491 1491 1491
1494 1497 1502 1505 1504 1498 1485 1480 1481 1494 1491 1481 1481 1481 1482 1483 1484 1483 1482 1481 1482 1481 1482 1483 1483 1483 1484 1484 1485 1484 1485 1485 1486 1487 1488 1488 1488 1488 1488 1488 1488 1488 1487 1487
1494 1498 1502 1505 1504 1499 1482 1481 1484 1485 1480 1480 1480 1481 1481 1480 1480 1479 1479 1479 1479 1480 1480 1481 1481 1481 1482 1483 1482 1482 1482 1483 1483 1484 1484 1485 1484 1485 1485 1485 1485 1484 1483 1483
1491 1491 1492 1494 1493 1484 1481 1480 1480 1480 1480 1479 1479 1479 1480 1479 1478 1478 1478 1477 1477 1478 1478 1479 1479 1479 1480 1480 1480 1479 1479 1480 1480 1480 1480 1481 1481 1481 1481 1481 1480 1480 1480 1479
1487 1486 1488 1489 1484 1480 1479 1478 1478 1478 1478 1478 1478 1479 1478 1477 1477 1476 1476 1476 1476 1476 1476 1477 1478 1477 1477 1478 1478 1477 1477 1477 1477 1476 1476 1476 1476 1476 1477 1477 1477 1476 1476 1475
1484 1485 1487 1486 1482 1479 1477 1477 1477 1477 1477 1477 1477 1477 1477 1476 1475 1475 1475 1475 1475 1475 1475 1475 1475 1476 1476 1476 1475 1475 1474 1474 1474 1473 1473 1473 1473 1472 1472 1473 1473 1472 1472 1472
1481 1482 1484 1483 1478 1479 1477 1476 1476 1476 1476 1476 1475 1475 1475 1475 1474 1474 1474 1474 1474 1474 1474 1474 1474 1474 1474 1473 1473 1472 1472 1471 1471 1470 1469 1469 1469 1469 1469 1469 1469 1468 1468 1468